Location: Olomouc
(49.5830°N, 17.2500°E)
Time: 20:07:35
(UTC+02:00)

ISS - Pass Details

Date: 10 May 2021
Orbit: 417 x 422 km, 51.6° (Epoch: 14 June)

Event Time Altitude Azimuth Distance (km) Brightness Sun altitude
Exits shadow 01:15:55 24° 78° (ENE) 921 -1.9 -22.5°
Drops below altitude 10° 01:17:25 10° 74° (ENE) 1,509 -0.7 -22.5°
Sets 01:19:31 0° 72° (ENE) 2,377 0.4 -22.4°
